This is the latest recevied weather packets stored in our database for station/object N7WSS. If no packets are shown the sender has not sent any weather packets the latest 10 day(s).
| Time | Temp. | Humidity | Pressure | Rain* | Wind** | Luminosity | Snow |
|---|---|---|---|---|---|---|---|
| 1787972839 | 29.44° C | 47% | 1013.5 hPa | 0 mm | - | - | - |
| 1787972534 | 31.11° C | 39% | 1013.1 hPa | 0 mm | - | - | - |
| 1787972233 | 32.78° C | 36% | 1013 hPa | 0 mm | - | - | - |
| 1787971927 | 33.33° C | 32% | 1012.8 hPa | 0 mm | - | - | - |
| 1787971623 | 34.44° C | 31% | 1012.6 hPa | 0 mm | - | - | - |
| 1787971319 | 34.44° C | 32% | 1012.5 hPa | 0 mm | - | - | - |
| 1787971015 | 33.89° C | 32% | 1012.6 hPa | 0 mm | - | - | - |
| 1787970714 | 33.89° C | 33% | 1012.6 hPa | 0 mm | - | - | - |
| 1787970413 | 33.89° C | 34% | 1012.4 hPa | 0 mm | - | - | - |
| 1787970112 | 33.33° C | 35% | 1011.9 hPa | 0 mm | - | - | - |
| 1787969811 | 33.89° C | 35% | 1011.7 hPa | 0 mm | - | - | - |
| 1787969510 | 33.89° C | 35% | 1011.6 hPa | 0 mm | - | - | - |
| 1787969206 | 33.89° C | 35% | 1011.4 hPa | 0 mm | - | - | - |
| 1787968905 | 33.89° C | 34% | 1011.1 hPa | 0 mm | - | - | - |
| 1787968605 | 33.89° C | 34% | 1011.3 hPa | 0 mm | - | - | - |
| 1787968300 | 33.89° C | 34% | 1011.4 hPa | 0 mm | - | - | - |
| 1787967996 | 34.44° C | 33% | 1011.3 hPa | 0 mm | - | - | - |
| 1787967692 | 34.44° C | 33% | 1011.2 hPa | 0 mm | - | - | - |
| 1787967391 | 35° C | 32% | 1010.9 hPa | 0 mm | - | - | - |
| 1787967086 | 35.56° C | 31% | 1011.1 hPa | 0 mm | - | - | - |
| 1787966784 | 36.67° C | 29% | 1011.1 hPa | 0 mm | - | - | - |
| 1787966484 | 36.67° C | 27% | 1010.8 hPa | 0 mm | - | - | - |
| 1787966179 | 37.22° C | 27% | 1010.9 hPa | 0 mm | - | - | - |
| 1787965879 | 37.22° C | 26% | 1011.2 hPa | 0 mm | - | - | - |
| 1787965574 | 37.78° C | 26% | 1011.2 hPa | 0 mm | - | - | - |
* Rain latest hour (hover to see other rain measurements)
** Current wind speed in m/s (hover to see current wind gust speed)